Location: Unspecified
(0.0000°N, 0.0000°E)
Time: 19:51:08
(UTC+00:00)

deb Briz - Pass Details

Date: 18 February 2026
Orbit: 1858 x 2172 km, 64.9° (Epoch: 11 March)

Event Time Altitude Azimuth Distance (km) Brightness Sun altitude
Rises 03:26:41 0° 187° (S) 5,469 ? -40.8°
Reaches altitude 10° 03:30:14 10° 181° (S) 4,508 ? -39.9°
Maximum altitude 03:41:20 46° 110° (ESE) 2,656 ? -37.2°
Drops below altitude 10° 03:52:48 10° 41° (NE) 4,676 ? -34.5°
Sets 03:56:29 0° 36° (NE) 5,687 ? -33.6°
